| time (UTC) | temp C | wind direction | speed KPH | gust KPH | rain 1hr cm | rain 24hr cm | rain mn cm | humidity % | barometer mb |
| 20260504173007 | 25 | 220 | 4.8 | 4.8 | 0.00 | 0.00 | 0.00 | 24 | 1017.9 |
| 20260504172506 | 25 | 90 | 1.6 | 3.2 | 0.00 | 0.00 | 0.00 | 23 | 1017.9 |
| 20260504172004 | 25 | 184 | 1.6 | 1.6 | 0.00 | 0.00 | 0.00 | 24 | 1017.9 |
| 20260504171507 | 25 | 52 | 3.2 | 3.2 | 0.00 | 0.00 | 0.00 | 23 | 1017.9 |
| 20260504171005 | 25 | 75 | 1.6 | 1.6 | 0.00 | 0.00 | 0.00 | 24 | 1018.3 |
| 20260504170506 | 23 | 270 | 8.0 | 9.7 | 0.00 | 0.00 | 0.00 | 24 | 1018.3 |
| 20260504151007 | 21 | 51 | 1.6 | 3.2 | 0.00 | 0.00 | 0.00 | 27 | 1020.0 |
| 20260504150507 | 21 | 36 | 0.0 | 3.2 | 0.00 | 0.00 | 0.00 | 27 | 1020.0 |
| 20260504141010 | 17 | 49 | 0.0 | 0.0 | 0.00 | 0.00 | 0.00 | 38 | 1020.0 |
| 20260504140507 | 17 | 20 | 1.6 | 3.2 | 0.00 | 0.00 | 0.00 | 38 | 1020.0 |
| 20260504130507 | 14 | 82 | 1.6 | 3.2 | 0.00 | 0.00 | 0.00 | 45 | 1020.0 |
| 20260504110506 | 9 | 53 | 0.0 | 0.0 | 0.00 | 0.00 | 0.00 | 63 | 1020.7 |
| 20260504100506 | 9 | 51 | 0.0 | 0.0 | 0.00 | 0.00 | 0.00 | 59 | 1020.7 |
| 20260504082006 | 9 | 39 | 0.0 | 0.0 | 0.00 | 0.00 | 0.00 | 59 | 1021.0 |
| 20260504081511 | 9 | 46 | 0.0 | 0.0 | 0.00 | 0.00 | 0.00 | 60 | 1021.0 |
| 20260504081006 | 9 | 38 | 0.0 | 0.0 | 0.00 | 0.00 | 0.00 | 62 | 1021.0 |
| 20260504080506 | 8 | 31 | 1.6 | 1.6 | 0.00 | 0.00 | 0.00 | 62 | 1021.0 |
| 20260504050506 | 8 | 44 | 0.0 | 0.0 | 0.00 | 0.00 | 0.00 | 53 | 1021.0 |
| 20260504050005 | 9 | 50 | 0.0 | 0.0 | 0.00 | 0.00 | 0.00 | 51 | 1021.0 |
| 20260504045505 | 9 | 50 | 0.0 | 0.0 | 0.00 | 0.00 | 0.00 | 51 | 1021.0 |
| 20260504045004 | 9 | 51 | 0.0 | 0.0 | 0.00 | 0.00 | 0.00 | 50 | 1021.0 |
| 20260504044505 | 9 | 57 | 0.0 | 0.0 | 0.00 | 0.00 | 0.00 | 50 | 1021.0 |
| 20260504044005 | 9 | 50 | 0.0 | 0.0 | 0.00 | 0.00 | 0.00 | 49 | 1021.0 |
| 20260504043505 | 9 | 48 | 0.0 | 0.0 | 0.00 | 0.00 | 0.00 | 50 | 1021.0 |
| 20260504043005 | 9 | 50 | 1.6 | 1.6 | 0.00 | 0.00 | 0.00 | 50 | 1021.0 |
| 20260504042514 | 10 | 51 | 0.0 | 1.6 | 0.00 | 0.00 | 0.00 | 49 | 1021.0 |
| 20260504042006 | 10 | 57 | 1.6 | 1.6 | 0.00 | 0.00 | 0.00 | 49 | 1021.0 |
| 20260504041505 | 9 | 54 | 0.0 | 0.0 | 0.00 | 0.00 | 0.00 | 50 | 1021.0 |
| 20260504041004 | 10 | 52 | 0.0 | 1.6 | 0.00 | 0.00 | 0.00 | 52 | 1021.0 |
| 20260504040505 | 9 | 56 | 0.0 | 0.0 | 0.00 | 0.00 | 0.00 | 54 | 1021.0 |
| 20260504040005 | 10 | 46 | 0.0 | 0.0 | 0.00 | 0.00 | 0.00 | 54 | 1021.0 |
| 20260504035505 | 9 | 56 | 1.6 | 1.6 | 0.00 | 0.00 | 0.00 | 54 | 1021.0 |
| 20260504035005 | 8 | 54 | 1.6 | 1.6 | 0.00 | 0.00 | 0.00 | 57 | 1021.0 |
| 20260504034504 | 8 | 47 | 0.0 | 0.0 | 0.00 | 0.00 | 0.00 | 59 | 1021.0 |
| 20260504034005 | 8 | 29 | 1.6 | 1.6 | 0.00 | 0.00 | 0.00 | 58 | 1021.0 |
| 20260504033508 | 8 | 34 | 1.6 | 1.6 | 0.00 | 0.00 | 0.00 | 58 | 1021.0 |
| 20260504033005 | 8 | 51 | 0.0 | 0.0 | 0.00 | 0.00 | 0.00 | 58 | 1021.0 |
| 20260504032504 | 8 | 51 | 0.0 | 1.6 | 0.00 | 0.00 | 0.00 | 58 | 1021.0 |
| 20260504032008 | 8 | 53 | 0.0 | 0.0 | 0.00 | 0.00 | 0.00 | 56 | 1020.7 |
| 20260504031506 | 8 | 52 | 1.6 | 1.6 | 0.00 | 0.00 | 0.00 | 57 | 1020.7 |
| 20260504031006 | 8 | 50 | 1.6 | 1.6 | 0.00 | 0.00 | 0.00 | 55 | 1020.7 |
| 20260504030505 | 8 | 50 | 0.0 | 0.0 | 0.00 | 0.00 | 0.00 | 54 | 1020.7 |
| 20260504030005 | 8 | 50 | 0.0 | 0.0 | 0.00 | 0.00 | 0.00 | 55 | 1020.7 |
| 20260504025504 | 9 | 50 | 0.0 | 0.0 | 0.00 | 0.00 | 0.00 | 53 | 1020.7 |
| 20260504025005 | 9 | 50 | 0.0 | 0.0 | 0.00 | 0.00 | 0.00 | 52 | 1020.7 |
| 20260504024504 | 9 | 50 | 0.0 | 0.0 | 0.00 | 0.00 | 0.00 | 52 | 1020.7 |
| 20260504024004 | 9 | 50 | 0.0 | 0.0 | 0.00 | 0.00 | 0.00 | 53 | 1020.7 |
| 20260504023505 | 9 | 50 | 0.0 | 0.0 | 0.00 | 0.00 | 0.00 | 52 | 1020.7 |
| 20260504023005 | 9 | 49 | 0.0 | 0.0 | 0.00 | 0.00 | 0.00 | 53 | 1020.7 |
| 20260504022504 | 9 | 48 | 0.0 | 0.0 | 0.00 | 0.00 | 0.00 | 53 | 1020.7 |
| 20260504022004 | 10 | 48 | 0.0 | 0.0 | 0.00 | 0.00 | 0.00 | 52 | 1020.7 |
| 20260504021504 | 10 | 47 | 0.0 | 0.0 | 0.00 | 0.00 | 0.00 | 51 | 1020.7 |
| 20260504021005 | 10 | 45 | 0.0 | 0.0 | 0.00 | 0.00 | 0.00 | 50 | 1020.7 |
| 20260504020504 | 10 | 53 | 0.0 | 0.0 | 0.00 | 0.00 | 0.00 | 49 | 1020.7 |
| 20260504020005 | 10 | 54 | 0.0 | 0.0 | 0.00 | 0.00 | 0.00 | 49 | 1020.7 |
| 20260504015504 | 10 | 51 | 1.6 | 1.6 | 0.00 | 0.00 | 0.00 | 47 | 1020.7 |
| 20260504015005 | 10 | 48 | 0.0 | 0.0 | 0.00 | 0.00 | 0.00 | 45 | 1020.7 |
| 20260504014504 | 10 | 48 | 0.0 | 0.0 | 0.00 | 0.00 | 0.00 | 44 | 1020.7 |
| 20260504014007 | 10 | 48 | 0.0 | 0.0 | 0.00 | 0.00 | 0.00 | 43 | 1020.7 |
| 20260504013504 | 11 | 48 | 0.0 | 0.0 | 0.00 | 0.00 | 0.00 | 43 | 1020.7 |
| 20260504013005 | 11 | 48 | 0.0 | 0.0 | 0.00 | 0.00 | 0.00 | 43 | 1020.7 |
| 20260504012505 | 11 | 52 | 0.0 | 1.6 | 0.00 | 0.00 | 0.00 | 41 | 1020.7 |
| 20260504012004 | 11 | 50 | 0.0 | 0.0 | 0.00 | 0.00 | 0.00 | 42 | 1020.7 |
| 20260504011505 | 11 | 49 | 0.0 | 0.0 | 0.00 | 0.00 | 0.00 | 43 | 1020.7 |
| 20260504011004 | 12 | 44 | 0.0 | 0.0 | 0.00 | 0.00 | 0.00 | 42 | 1020.3 |
| 20260504010504 | 12 | 12 | 1.6 | 1.6 | 0.00 | 0.00 | 0.00 | 42 | 1020.3 |
| 20260504010006 | 12 | 51 | 0.0 | 0.0 | 0.00 | 0.00 | 0.00 | 41 | 1020.3 |
| 20260504005506 | 12 | 52 | 0.0 | 0.0 | 0.00 | 0.00 | 0.00 | 41 | 1020.3 |
| 20260504005004 | 12 | 53 | 0.0 | 0.0 | 0.00 | 0.00 | 0.00 | 40 | 1020.3 |
| 20260504004504 | 12 | 53 | 0.0 | 0.0 | 0.00 | 0.00 | 0.00 | 39 | 1020.0 |
| 20260504004004 | 12 | 51 | 0.0 | 0.0 | 0.00 | 0.00 | 0.00 | 39 | 1020.0 |
| 20260504003505 | 13 | 44 | 0.0 | 0.0 | 0.00 | 0.00 | 0.00 | 38 | 1020.0 |
| 20260504003005 | 13 | 44 | 0.0 | 0.0 | 0.00 | 0.00 | 0.00 | 37 | 1020.0 |
| 20260504002508 | 13 | 44 | 0.0 | 0.0 | 0.00 | 0.00 | 0.00 | 36 | 1020.0 |
| 20260504002005 | 13 | 23 | 1.6 | 1.6 | 0.00 | 0.00 | 0.00 | 35 | 1020.0 |
| 20260504001505 | 14 | 48 | 0.0 | 0.0 | 0.00 | 0.00 | 0.00 | 33 | 1020.0 |
| 20260504001004 | 14 | 53 | 0.0 | 1.6 | 0.00 | 0.00 | 0.00 | 32 | 1020.0 |
| 20260504000504 | 14 | 50 | 0.0 | 0.0 | 0.00 | 0.00 | 0.00 | 31 | 1020.0 |
| 20260504000005 | 15 | 48 | 0.0 | 0.0 | 0.00 | 0.00 | 0.00 | 31 | 1020.0 |
| 20260503235505 | 15 | 48 | 0.0 | 0.0 | 0.00 | 0.00 | 0.00 | 30 | 1020.0 |
| 20260503235005 | 15 | 46 | 0.0 | 0.0 | 0.00 | 0.00 | 0.00 | 28 | 1020.0 |
| 20260503234506 | 16 | 48 | 0.0 | 0.0 | 0.00 | 0.00 | 0.00 | 27 | 1020.0 |
| 20260503234004 | 16 | 36 | 0.0 | 0.0 | 0.00 | 0.00 | 0.00 | 27 | 1020.0 |
| 20260503233504 | 16 | 43 | 3.2 | 4.8 | 0.00 | 0.00 | 0.00 | 25 | 1020.0 |
| 20260503233004 | 16 | 47 | 1.6 | 3.2 | 0.00 | 0.00 | 0.00 | 25 | 1020.0 |
| 20260503232504 | 16 | 49 | 3.2 | 3.2 | 0.00 | 0.00 | 0.00 | 25 | 1020.0 |
| 20260503232004 | 16 | 90 | 1.6 | 1.6 | 0.00 | 0.00 | 0.00 | 24 | 1019.6 |
| 20260503231504 | 17 | 52 | 0.0 | 1.6 | 0.00 | 0.00 | 0.00 | 24 | 1019.6 |
| 20260503231004 | 17 | 61 | 0.0 | 0.0 | 0.00 | 0.00 | 0.00 | 23 | 1019.6 |
| 20260503230504 | 18 | 62 | 3.2 | 3.2 | 0.00 | 0.00 | 0.00 | 22 | 1019.6 |
| 20260503230004 | 18 | 60 | 1.6 | 1.6 | 0.00 | 0.00 | 0.00 | 22 | 1019.6 |
| 20260503225505 | 19 | 78 | 3.2 | 4.8 | 0.00 | 0.00 | 0.00 | 22 | 1019.6 |
| 20260503225004 | 18 | 46 | 1.6 | 3.2 | 0.00 | 0.00 | 0.00 | 22 | 1019.6 |
| 20260503224504 | 18 | 14 | 3.2 | 4.8 | 0.00 | 0.00 | 0.00 | 21 | 1019.6 |
| 20260503224005 | 19 | 43 | 0.0 | 1.6 | 0.00 | 0.00 | 0.00 | 21 | 1019.6 |
| 20260503223505 | 18 | 77 | 4.8 | 6.4 | 0.00 | 0.00 | 0.00 | 21 | 1020.0 |
| 20260503223004 | 18 | 243 | 8.0 | 8.0 | 0.00 | 0.00 | 0.00 | 21 | 1020.0 |
| 20260503222505 | 19 | 43 | 3.2 | 3.2 | 0.00 | 0.00 | 0.00 | 21 | 1020.0 |
| 20260503222005 | 19 | 83 | 4.8 | 6.4 | 0.00 | 0.00 | 0.00 | 21 | 1019.6 |
| 20260503221505 | 20 | 46 | 1.6 | 3.2 | 0.00 | 0.00 | 0.00 | 21 | 1019.6 |
| 20260503221005 | 20 | 48 | 1.6 | 1.6 | 0.00 | 0.00 | 0.00 | 21 | 1019.6 |
| 20260503220504 | 20 | 70 | 4.8 | 4.8 | 0.00 | 0.00 | 0.00 | 20 | 1019.6 |
| 20260503220004 | 19 | 100 | 3.2 | 4.8 | 0.00 | 0.00 | 0.00 | 20 | 1020.0 |
| 20260503215504 | 19 | 55 | 4.8 | 6.4 | 0.00 | 0.00 | 0.00 | 21 | 1020.0 |
| 20260503215004 | 18 | 59 | 4.8 | 9.7 | 0.00 | 0.00 | 0.00 | 20 | 1020.0 |
| 20260503214504 | 20 | 63 | 1.6 | 4.8 | 0.00 | 0.00 | 0.00 | 20 | 1019.6 |
| 20260503214005 | 20 | 54 | 3.2 | 4.8 | 0.00 | 0.00 | 0.00 | 20 | 1019.6 |
| 20260503213504 | 20 | 52 | 3.2 | 3.2 | 0.00 | 0.00 | 0.00 | 19 | 1020.0 |
| 20260503213005 | 20 | 114 | 3.2 | 3.2 | 0.00 | 0.00 | 0.00 | 19 | 1020.0 |
| 20260503212505 | 20 | 39 | 8.0 | 8.0 | 0.00 | 0.00 | 0.00 | 19 | 1020.0 |
| 20260503212004 | 20 | 74 | 8.0 | 16.1 | 0.00 | 0.00 | 0.00 | 20 | 1020.0 |
| 20260503211505 | 20 | 76 | 1.6 | 1.6 | 0.00 | 0.00 | 0.00 | 19 | 1020.0 |
| 20260503211005 | 20 | 66 | 6.4 | 8.0 | 0.00 | 0.00 | 0.00 | 19 | 1020.0 |
| 20260503210504 | 20 | 48 | 3.2 | 9.7 | 0.00 | 0.00 | 0.00 | 20 | 1020.0 |
| 20260503210006 | 20 | 69 | 4.8 | 4.8 | 0.00 | 0.00 | 0.00 | 20 | 1020.0 |
| 20260503205505 | 19 | 61 | 4.8 | 11.3 | 0.00 | 0.00 | 0.00 | 23 | 1020.0 |
| 20260503205004 | 19 | 48 | 3.2 | 6.4 | 0.00 | 0.00 | 0.00 | 21 | 1020.0 |
| 20260503204504 | 19 | 97 | 1.6 | 1.6 | 0.00 | 0.00 | 0.00 | 21 | 1020.0 |
| 20260503204004 | 19 | 238 | 3.2 | 3.2 | 0.00 | 0.00 | 0.00 | 20 | 1020.0 |
| 20260503203505 | 18 | 356 | 6.4 | 11.3 | 0.00 | 0.00 | 0.00 | 20 | 1020.0 |
| 20260503203008 | 19 | 55 | 3.2 | 4.8 | 0.00 | 0.00 | 0.00 | 21 | 1020.0 |
| 20260503202504 | 20 | 359 | 1.6 | 3.2 | 0.00 | 0.00 | 0.00 | 20 | 1020.0 |
| 20260503202005 | 19 | 81 | 4.8 | 9.7 | 0.00 | 0.00 | 0.00 | 21 | 1020.0 |
| 20260503201505 | 19 | 84 | 6.4 | 6.4 | 0.00 | 0.00 | 0.00 | 20 | 1020.0 |
| 20260503201004 | 19 | 86 | 4.8 | 4.8 | 0.00 | 0.00 | 0.00 | 22 | 1020.0 |
| 20260503200507 | 19 | 78 | 6.4 | 6.4 | 0.00 | 0.00 | 0.00 | 21 | 1020.0 |
| 20260503200005 | 18 | 47 | 3.2 | 8.0 | 0.00 | 0.00 | 0.00 | 22 | 1020.0 |
| 20260503195504 | 19 | 197 | 4.8 | 4.8 | 0.00 | 0.00 | 0.00 | 21 | 1020.0 |
| 20260503195005 | 20 | 65 | 1.6 | 4.8 | 0.00 | 0.00 | 0.00 | 21 | 1020.0 |
| 20260503194504 | 19 | 25 | 1.6 | 3.2 | 0.00 | 0.00 | 0.00 | 22 | 1020.3 |
| 20260503194004 | 17 | 99 | 6.4 | 6.4 | 0.00 | 0.00 | 0.00 | 24 | 1020.3 |
| 20260503193504 | 18 | 352 | 6.4 | 11.3 | 0.00 | 0.00 | 0.00 | 23 | 1020.3 |
| 20260503193006 | 18 | 18 | 8.0 | 8.0 | 0.00 | 0.00 | 0.00 | 23 | 1020.3 |
| 20260503192505 | 18 | 52 | 4.8 | 6.4 | 0.00 | 0.00 | 0.00 | 22 | 1020.7 |
| 20260503192005 | 19 | 111 | 1.6 | 3.2 | 0.00 | 0.00 | 0.00 | 22 | 1020.7 |
| 20260503191505 | 19 | 73 | 4.8 | 4.8 | 0.00 | 0.00 | 0.00 | 23 | 1020.7 |
| 20260503191005 | 18 | 275 | 3.2 | 4.8 | 0.00 | 0.00 | 0.00 | 23 | 1020.7 |
| 20260503190506 | 17 | 48 | 4.8 | 8.0 | 0.00 | 0.00 | 0.00 | 24 | 1020.7 |
| 20260503190006 | 17 | 21 | 6.4 | 9.7 | 0.00 | 0.00 | 0.00 | 24 | 1020.7 |
| 20260503185506 | 17 | 58 | 1.6 | 6.4 | 0.00 | 0.00 | 0.00 | 24 | 1020.7 |
| 20260503185006 | 16 | 72 | 3.2 | 4.8 | 0.00 | 0.00 | 0.00 | 26 | 1020.7 |
| 20260503184505 | 16 | 72 | 3.2 | 4.8 | 0.00 | 0.00 | 0.00 | 26 | 1021.0 |
| 20260503184004 | 16 | 77 | 3.2 | 8.0 | 0.00 | 0.00 | 0.00 | 25 | 1021.0 |
| 20260503183507 | 17 | 62 | 4.8 | 4.8 | 0.00 | 0.00 | 0.00 | 25 | 1021.0 |
| 20260503183005 | 16 | 56 | 3.2 | 6.4 | 0.00 | 0.00 | 0.00 | 25 | 1021.0 |
| 20260503182505 | 17 | 67 | 3.2 | 4.8 | 0.00 | 0.00 | 0.00 | 25 | 1021.7 |
| 20260503182006 | 17 | 74 | 8.0 | 8.0 | 0.00 | 0.00 | 0.00 | 24 | 1021.7 |
| 20260503181505 | 17 | 38 | 1.6 | 3.2 | 0.00 | 0.00 | 0.00 | 24 | 1021.7 |
| 20260503181004 | 16 | 66 | 6.4 | 11.3 | 0.00 | 0.00 | 0.00 | 25 | 1021.7 |
| 20260503180504 | 16 | 45 | 3.2 | 4.8 | 0.00 | 0.00 | 0.00 | 27 | 1021.7 |
| 20260503180004 | 15 | 124 | 6.4 | 6.4 | 0.00 | 0.00 | 0.00 | 26 | 1021.7 |
| 20260503175505 | 15 | 67 | 11.3 | 17.7 | 0.00 | 0.00 | 0.00 | 27 | 1021.7 |
| 20260503175005 | 17 | 55 | 3.2 | 4.8 | 0.00 | 0.00 | 0.00 | 25 | 1021.7 |
| 20260503174505 | 16 | 87 | 4.8 | 12.9 | 0.00 | 0.00 | 0.00 | 26 | 1021.7 |
| 20260503174005 | 15 | 91 | 3.2 | 3.2 | 0.00 | 0.00 | 0.00 | 28 | 1021.7 |
| 20260503173504 | 15 | 259 | 3.2 | 8.0 | 0.00 | 0.00 | 0.00 | 27 | 1021.7 |